Flag for Germany Weather past 2 weeks in Seevetal, Lower Saxony, Germany

Now
43 °F

Scattered clouds.


Feels Like: 35 °F
Forecast: 36 / 40 °F
Wind: 15 mph from West

Location: Hamburg-Finkenwerder

Current Time: Mar 2, 2015 at 4:07:05 PM

Latest Report: Mar 2, 2015 at 3:20 PM


Visibility: N/A

Pressure: 29.53 "Hg

Humidity: 71%

Dew point: 34 °F

Location of SeevetalLocation

Historic Weather in Seevetal — Graph

°F

Seevetal temperature yesterday

Past Weeks' High & Low Weather Summary

 TemperatureHumidityPressure
High46 °F (Feb 25, 3:20 PM)100% (Feb 17, 5:50 AM)30.69 "Hg (Feb 17, 5:50 AM)
Low27 °F (Feb 17, 7:20 AM)61% (Feb 18, 4:20 PM)29.24 "Hg (Feb 21, 10:50 AM)
Average39 °F89%29.94 "Hg
* Reported Feb 16 5:50 AM — Mar 2 2:50 PM, Seevetal, Weather by CustomWeather, © 2015

Note: Actual official high and low records may vary slightly from our data, if they occured in-between our weather recording intervals... More about our weather records

Advertising

Seevetal weather history for previous 24 hours

 ConditionsComfort  
Time TempWeatherWind HumidityBarometerVisibility
2:50 PM
Mon, Mar 2
39 °FScattered showers. Scattered clouds.21 mph93%29.53 "HgN/A
2:20 PM41 °FScattered showers. Broken clouds.17 mph87%29.50 "HgN/A
1:50 PM43 °FScattered showers. Broken clouds.17 mph81%29.47 "HgN/A
1:20 PM43 °FSprinkles. Partly sunny.21 mph76%29.47 "Hg6 mi
12:50 PM45 °FPartly sunny.30 mph71%29.47 "HgN/A
12:20 PM43 °FPartly sunny.25 mph76%29.45 "HgN/A
11:50 AM41 °FPartly sunny.25 mph87%29.45 "HgN/A
11:20 AM41 °FPartly sunny.21 mph87%29.45 "HgN/A
10:50 AM39 °FRain showers. Partly sunny.23 mph93%29.42 "Hg6 mi
10:20 AM41 °FPartly sunny.23 mph81%29.42 "HgN/A
9:50 AM41 °FPartly sunny.24 mph81%29.39 "HgN/A
9:20 AM39 °FPartly sunny.23 mph87%29.39 "HgN/A
8:50 AM39 °FPartly sunny.22 mph87%29.39 "HgN/A
8:20 AM39 °FPartly sunny.24 mph87%29.36 "HgN/A
7:50 AM39 °FPartly sunny.23 mph93%29.36 "HgN/A
7:20 AM39 °FSprinkles. Partly sunny.24 mph93%29.33 "HgN/A
6:50 AM39 °FPassing clouds.23 mph93%29.33 "HgN/A
6:20 AM39 °FPassing clouds.23 mph100%29.30 "HgN/A
5:50 AM41 °FLight rain. Passing clouds.22 mph93%29.30 "HgN/A
5:20 AM41 °FLight rain. Passing clouds.16 mph93%29.27 "HgN/A
Weather by CustomWeather, © 2015

See weather overviewHow to use our weather pages